DO8TBO-15 Weather Reports


Display with metric or nautical units.
time (UTC)temp
F
wind
direction
speed
MPH
gust
MPH
rain 1hr
in
rain 24hr
in
rain mn
in
humidity
%
barometer
mb
20260510042606 51 0.0 0.0 0.00 0.00 0.00 1014.0
20260510041603 50 0.0 0.0 0.00 0.00 0.00 1014.0
20260510040559 50 0.0 0.0 0.00 0.00 0.00 1013.9
20260510035555 50 0.0 0.0 0.00 0.00 0.00 1014.0
20260510034551 50 0.0 0.0 0.00 0.00 0.00 1013.9
20260510032545 50 0.0 1.0 0.00 0.00 0.00 1013.9
20260510031540 50 0.0 2.0 0.00 0.00 0.00 1013.9
20260510030537 49 0.0 0.0 0.00 0.00 0.00 1013.9
20260510025532 50 0.0 1.0 0.00 0.00 0.00 1013.9
20260510024529 50 0.0 0.0 0.00 0.00 0.00 1014.1
20260510023526 50 0.0 0.0 0.00 0.00 0.00 1014.1
20260510021518 50 0.0 1.0 0.00 0.00 0.00 1014.1
20260510020614 50 0.0 0.0 0.00 0.00 0.00 1014.1
20260510015610 50 0.0 0.0 0.00 0.00 0.00 1014.2
20260510014607 50 0.0 0.0 0.00 0.00 0.00 1014.3
20260510012559 51 0.0 0.0 0.00 0.00 0.00 1014.4
20260510011555 51 315 0.0 2.0 0.00 0.00 0.00 1014.6
20260510010551 51 0.0 0.0 0.00 0.00 0.00 1014.7
20260510004544 52 0.0 0.0 0.00 0.00 0.00 1014.8
20260510003540 52 0.0 0.0 0.00 0.00 0.00 1015.0
20260510002536 52 0.0 1.0 0.00 0.00 0.00 1015.0
20260510001532 52 0.0 2.0 0.00 0.00 0.00 1015.1
20260509235524 52 0.0 0.0 0.00 0.00 0.00 1015.2
20260509234521 52 0.0 0.0 0.00 0.00 0.00 1015.3
20260509233517 52 0.0 0.0 0.00 0.00 0.00 1015.6
20260509232613 52 0.0 0.0 0.00 0.00 0.00 1015.8
20260509230606 54 0.0 0.0 0.00 0.00 0.00 1015.8
20260509225603 54 0.0 0.0 0.00 0.00 0.00 1015.8
20260509224558 54 0.0 1.0 0.00 0.00 0.00 1015.9
20260509222551 55 0.0 0.0 0.00 0.00 0.00 1015.8
20260509220544 56 0.0 0.0 0.00 0.00 0.00 1015.9
20260509215540 56 0.0 0.0 0.00 0.00 0.00 1016.0
20260509214535 56 0.0 2.0 0.00 0.00 0.00 1015.9
20260509213532 57 0.0 0.0 0.00 0.00 0.00 1015.9
20260509211524 57 0.0 0.0 0.00 0.00 0.00 1015.9
20260509210520 57 0.0 0.0 0.00 0.00 0.00 1015.9
20260509205516 57 0.0 1.0 0.00 0.00 0.00 1016.0
20260509204614 57 0.0 1.0 0.00 0.00 0.00 1016.0
20260509203609 57 0 0.0 3.0 0.00 0.00 0.00 1016.0
20260509202605 57 0.0 0.0 0.00 0.00 0.00 1016.0
20260509201602 57 0.0 0.0 0.00 0.00 0.00 1015.9
20260509200558 58 0.0 0.0 0.00 0.00 0.00 1015.9
20260509195554 58 0.0 0.0 0.00 0.00 0.00 1015.9
20260509194550 58 0.0 0.0 0.00 0.00 0.00 1015.8
20260509193547 59 0.0 0.0 0.00 0.00 0.00 1015.7
20260509192543 59 0.0 0.0 0.00 0.00 0.00 1015.7
20260509191539 60 0.0 2.0 0.00 0.00 0.00 1015.5
20260509190536 61 0.0 1.0 0.00 0.00 0.00 1015.3
20260509185532 61 315 0.0 3.0 0.00 0.00 0.00 1015.2
20260509184528 63 20 1.0 4.0 0.00 0.00 0.00 1015.3
20260509183524 64 25 1.0 5.0 0.00 0.00 0.00 1015.2
20260509182521 66 326 0.0 4.0 0.00 0.00 0.00 1015.2
20260509181517 68 0.0 2.0 0.00 0.00 0.00 1015.2
20260509180613 71 0.0 0.0 0.00 0.00 0.00 1015.1
20260509175610 74 0.0 0.0 0.00 0.00 0.00 1015.2
20260509174606 74 0.0 0.0 0.00 0.00 0.00 1015.2
20260509173602 75 0.0 2.0 0.00 0.00 0.00 1015.1
20260509172559 76 0.0 2.0 0.00 0.00 0.00 1015.1
20260509171554 78 0.0 2.0 0.00 0.00 0.00 1015.2
20260509170551 78 0.0 1.0 0.00 0.00 0.00 1015.2
20260509165548 78 0.0 0.0 0.00 0.00 0.00 1015.2
20260509164543 78 0 0.0 2.0 0.00 0.00 0.00 1015.2
20260509163539 76 0.0 2.0 0.00 0.00 0.00 1015.4
20260509162536 75 0.0 2.0 0.00 0.00 0.00 1015.3
20260509161532 73 0 1.0 4.0 0.00 0.00 0.00 1015.3
20260509160528 73 0.0 2.0 0.00 0.00 0.00 1015.3
20260509155524 76 0.0 2.0 0.00 0.00 0.00 1015.4
20260509154521 76 170 1.0 3.0 0.00 0.00 0.00 1015.6
20260509153518 75 163 1.0 3.0 0.00 0.00 0.00 1015.7
20260509152613 73 180 0.0 2.0 0.00 0.00 0.00 1015.9
20260509151610 73 163 1.0 3.0 0.00 0.00 0.00 1015.9
20260509150607 75 0.0 2.0 0.00 0.00 0.00 1016.0
20260509145602 75 0.0 2.0 0.00 0.00 0.00 1016.1
20260509144559 75 0.0 2.0 0.00 0.00 0.00 1016.0
20260509143555 75 180 1.0 4.0 0.00 0.00 0.00 1016.1
20260509142552 75 0.0 1.0 0.00 0.00 0.00 1016.3
20260509141547 73 158 0.0 4.0 0.00 0.00 0.00 1016.6
20260509140544 70 0.0 0.0 0.00 0.00 0.00 1016.6
20260509135539 70 0.0 2.0 0.00 0.00 0.00 1016.7
20260509134536 69 7 1.0 2.0 0.00 0.00 0.00 1016.9
20260509133532 69 328 1.0 4.0 0.00 0.00 0.00 1017.0
20260509132529 69 24 1.0 4.0 0.00 0.00 0.00 1017.1
20260509131525 70 10 1.0 3.0 0.00 0.00 0.00 1017.2
20260509130521 74 0.0 0.0 0.00 0.00 0.00 1017.3
20260509125517 72 180 0.0 3.0 0.00 0.00 0.00 1017.5
20260509124615 71 315 0.0 2.0 0.00 0.00 0.00 1017.7
20260509123611 71 0.0 2.0 0.00 0.00 0.00 1017.7
20260509122606 72 162 0.0 3.0 0.00 0.00 0.00 1017.7
20260509121602 71 0.0 2.0 0.00 0.00 0.00 1017.8
20260509120559 72 135 2.0 3.0 0.00 0.00 0.00 1017.9
20260509115556 71 173 1.0 4.0 0.00 0.00 0.00 1018.0
20260509114551 72 180 1.0 4.0 0.00 0.00 0.00 1018.1
20260509113547 71 135 0.0 4.0 0.00 0.00 0.00 1018.2
20260509112544 71 0.0 1.0 0.00 0.00 0.00 1018.2
20260509111540 70 0.0 2.0 0.00 0.00 0.00 1018.3
20260509110536 70 270 2.0 3.0 0.00 0.00 0.00 1018.4
20260509105533 70 45 0.0 2.0 0.00 0.00 0.00 1018.5
20260509104529 68 0.0 2.0 0.00 0.00 0.00 1018.6
20260509103525 66 146 0.0 3.0 0.00 0.00 0.00 1018.7
20260509102521 67 167 1.0 4.0 0.00 0.00 0.00 1018.8
20260509101517 68 270 0.0 4.0 0.00 0.00 0.00 1018.7
20260509100614 67 0.0 2.0 0.00 0.00 0.00 1018.9
20260509095611 66 157 1.0 4.0 0.00 0.00 0.00 1018.8
20260509094606 65 155 1.0 5.0 0.00 0.00 0.00 1018.9
20260509093602 66 193 2.0 4.0 0.00 0.00 0.00 1018.9
20260509092558 66 188 1.0 4.0 0.00 0.00 0.00 1019.0
20260509091555 65 40 0.0 4.0 0.00 0.00 0.00 1019.0
20260509090552 65 0.0 2.0 0.00 0.00 0.00 1019.0
20260509085548 64 9 1.0 3.0 0.00 0.00 0.00 1019.1
20260509084544 64 0.0 2.0 0.00 0.00 0.00 1019.2
20260509083540 65 180 0.0 4.0 0.00 0.00 0.00 1019.1
20260509082536 63 0.0 2.0 0.00 0.00 0.00 1019.2
20260509080529 62 248 3.0 4.0 0.00 0.00 0.00 1019.2
20260509075525 61 158 0.0 4.0 0.00 0.00 0.00 1019.3
20260509074522 61 163 1.0 4.0 0.00 0.00 0.00 1019.3
20260509073517 60 181 1.0 4.0 0.00 0.00 0.00 1019.3
20260509072614 60 135 0.0 4.0 0.00 0.00 0.00 1019.3
20260509071610 59 173 1.0 4.0 0.00 0.00 0.00 1019.2
20260509070607 58 0.0 0.0 0.00 0.00 0.00 1019.3
20260509065603 58 169 1.0 4.0 0.00 0.00 0.00 1019.2
20260509064600 58 169 0.0 3.0 0.00 0.00 0.00 1019.2
20260509063556 56 0.0 2.0 0.00 0.00 0.00 1019.2
20260509062551 53 0.0 0.0 0.00 0.00 0.00 1019.2
20260509061548 50 0.0 0.0 0.00 0.00 0.00 1019.1
20260509060544 47 315 1.0 2.0 0.00 0.00 0.00 1019.2
20260509055540 47 15 2.0 4.0 0.00 0.00 0.00 1019.2
20260509054536 46 322 1.0 4.0 0.00 0.00 0.00 1019.3
20260509053532 44 349 1.0 4.0 0.00 0.00 0.00 1019.3
20260509052528 43 15 1.0 3.0 0.00 0.00 0.00 1019.3
20260509051525 42 0 1.0 4.0 0.00 0.00 0.00 1019.3
20260509050522 41 315 2.0 4.0 0.00 0.00 0.00 1019.2
20260509045518 41 1 1.0 4.0 0.00 0.00 0.00 1019.1
20260509044614 40 0 1.0 3.0 0.00 0.00 0.00 1018.9